GW0207 Weather Reports


time (UTC)temp
C
wind
direction
speed
KPH
gust
KPH
rain 1hr
cm
rain 24hr
cm
rain mn
cm
humidity
%
barometer
mb
20260508010429 12 229 0.0 0.0 0.00 1.19 1.17 95 1010.8
20260508005930 12 229 0.0 1.6 0.00 1.19 1.17 95 1010.7
20260508005429 12 229 0.0 1.6 0.00 1.19 1.17 95 1010.6
20260508004929 12 238 0.0 0.0 0.00 1.19 1.17 95 1010.4
20260508004428 12 238 0.0 0.0 0.00 1.19 1.17 95 1010.3
20260508003928 12 237 0.0 0.0 0.00 1.19 1.17 95 1010.4
20260508003431 12 234 0.0 0.0 0.00 1.19 1.17 95 1010.4
20260508002930 12 235 0.0 0.0 0.00 1.19 1.17 95 1010.4
20260508002429 12 233 0.0 0.0 0.00 1.19 1.17 95 1010.3
20260508001929 12 233 0.0 0.0 0.00 1.19 1.17 95 1010.3
20260508001430 12 84 0.0 0.0 0.00 1.22 1.17 95 1010.7
20260508000933 12 84 0.0 0.0 0.00 1.22 1.17 95 1010.4
20260508000431 12 84 0.0 0.0 0.00 1.22 1.17 95 1010.4
20260507235931 12 82 0.0 0.0 0.00 1.22 1.17 95 1010.4
20260507235431 12 82 0.0 0.0 0.00 1.22 1.17 95 1010.2
20260507234931 12 82 0.0 1.6 0.00 1.22 1.17 94 1010.0
20260507234432 12 78 0.0 1.6 0.00 1.22 1.17 94 1009.8
20260507233934 12 282 0.0 0.0 0.00 1.22 1.17 94 1009.8
20260507233430 12 67 0.0 0.0 0.00 1.22 1.17 94 1009.6
20260507233149 12 292 0.0 3.2 0.00 1.22 1.17 94 1009.2
20260507232652 12 292 0.0 3.2 0.00 1.22 1.17 94 1009.2
20260507231931 12 239 0.0 1.6 0.00 1.22 1.17 94 1009.2
20260507231431 12 26 0.0 1.6 0.00 1.22 1.17 94 1009.2
20260507230931 12 239 0.0 1.6 0.00 1.22 1.17 94 1009.2
20260507230433 12 231 0.0 1.6 0.00 1.22 1.17 94 1009.1
20260507225931 12 128 0.0 1.6 0.00 1.22 1.17 94 1009.4
20260507225657 12 281 0.0 1.6 0.00 1.22 1.17 94 1009.1
20260507224931 12 313 0.0 1.6 0.00 1.22 1.17 94 1009.0
20260507224431 12 334 0.0 3.2 0.00 1.22 1.17 94 1009.1
20260507224144 12 224 0.0 8.0 0.00 1.22 1.17 94 1009.2
20260507224136 12 114 0.0 4.8 0.00 1.22 1.17 94 1009.2
20260507223417 12 250 0.0 8.0 0.00 1.22 1.17 94 1009.4
20260507222431 12 253 0.0 4.8 0.00 1.22 1.17 94 1009.6
20260507222156 12 81 0.0 9.7 0.00 1.22 1.17 94 1009.5
20260507221433 12 253 0.0 9.7 0.00 1.22 1.17 94 1009.7
20260507220932 12 43 0.0 4.8 0.00 1.22 1.17 94 1009.5
20260507220430 12 235 0.0 6.4 0.00 1.22 1.17 94 1009.3
20260507215932 12 104 0.0 6.4 0.00 1.22 1.17 95 1009.2
20260507215431 12 253 0.0 4.8 0.00 1.22 1.17 95 1009.3
20260507214931 12 262 0.0 4.8 0.00 1.22 1.17 95 1009.3
20260507214431 12 38 0.0 4.8 0.00 1.22 1.17 95 1009.3
20260507213931 12 258 0.0 6.4 0.00 1.22 1.17 95 1009.2
20260507213431 12 300 0.0 6.4 0.00 1.22 1.17 95 1009.1
20260507212931 12 356 0.0 3.2 0.00 1.22 1.17 95 1009.0
20260507212641 12 62 0.0 6.4 0.00 1.22 1.17 95 1009.0
20260507212625 12 269 0.0 3.2 0.00 1.22 1.17 95 1009.0
20260507211431 12 112 0.0 6.4 0.00 1.22 1.17 95 1009.0
20260507210931 12 260 1.6 6.4 0.00 1.22 1.17 95 1009.0
20260507210431 12 276 1.6 6.4 0.00 1.22 1.17 94 1009.0
20260507205930 12 67 1.6 4.8 0.00 1.22 1.17 94 1008.8
20260507205431 12 67 1.6 11.3 0.00 1.22 1.17 95 1008.8
20260507204932 12 244 0.0 11.3 0.00 1.22 1.17 95 1008.7
20260507204431 12 307 0.0 3.2 0.00 1.22 1.17 95 1008.7
20260507203930 12 357 0.0 4.8 0.00 1.22 1.17 95 1008.7
20260507203651 12 66 1.6 11.3 0.00 1.22 1.17 95 1008.9
20260507202931 12 57 1.6 11.3 0.00 1.22 1.17 95 1008.7
20260507202656 12 73 1.6 11.3 0.00 1.22 1.17 95 1008.7
20260507201931 12 274 1.6 11.3 0.00 1.22 1.17 96 1008.7
20260507201432 12 63 1.6 12.9 0.03 1.22 1.17 96 1008.4
20260507200931 12 233 1.6 12.9 0.03 1.22 1.17 96 1008.6
20260507200431 12 60 1.6 6.4 0.05 1.22 1.17 96 1008.8
20260507200412 12 223 0.0 6.4 0.05 1.22 1.17 96 1008.8
20260507195658 12 25 0.0 6.4 0.05 1.22 1.17 96 1008.5
20260507194931 12 352 0.0 8.0 0.05 1.22 1.17 96 1008.7
20260507194431 12 293 1.6 8.0 0.05 1.22 1.17 96 1008.7
20260507193931 12 181 1.6 8.0 0.05 1.22 1.17 96 1008.8
20260507193431 12 256 1.6 8.0 0.05 1.22 1.17 96 1008.9
20260507192931 12 299 0.0 6.4 0.05 1.22 1.17 96 1009.0
20260507192429 12 95 1.6 8.0 0.05 1.22 1.17 96 1008.9
20260507191929 12 280 1.6 9.7 0.05 1.22 1.17 96 1008.8
20260507191430 12 100 1.6 9.7 0.03 1.19 1.14 96 1008.6
20260507191145 12 86 1.6 9.7 0.03 1.19 1.14 96 1008.5
20260507190649 12 321 1.6 8.0 0.00 1.17 1.12 96 1008.4
20260507185929 12 81 1.6 8.0 0.00 1.17 1.12 96 1008.3
20260507185651 12 314 1.6 16.1 0.00 1.17 1.12 96 1008.2
20260507184929 13 254 1.6 16.1 0.00 1.17 1.12 96 1008.3
20260507184429 13 95 0.0 6.4 0.03 1.17 1.12 96 1008.3
20260507183931 13 73 1.6 8.0 0.03 1.17 1.12 96 1008.3
20260507183429 13 203 1.6 9.7 0.03 1.17 1.12 96 1008.1
20260507182930 13 41 3.2 12.9 0.03 1.17 1.12 96 1007.9
20260507182429 13 70 1.6 12.9 0.03 1.17 1.12 96 1007.9
20260507181929 13 306 0.0 9.7 0.03 1.17 1.12 96 1008.0
20260507181428 13 278 0.0 6.4 0.03 1.17 1.12 96 1008.0
20260507180928 13 218 1.6 11.3 0.03 1.17 1.12 96 1008.2
20260507180646 13 221 0.0 11.3 0.05 1.17 1.12 96 1007.8
20260507175929 13 256 0.0 8.0 0.08 1.17 1.12 96 1008.0
20260507175917 13 253 1.6 8.0 0.08 1.17 1.12 96 1008.6
20260507174929 13 232 1.6 8.0 0.05 1.14 1.12 96 1008.9
20260507174430 13 284 1.6 8.0 0.08 1.14 1.09 96 1009.1
20260507174148 13 339 1.6 9.7 0.08 1.14 1.09 96 1008.5
20260507173429 14 283 1.6 9.7 0.08 1.14 1.09 96 1008.4
20260507172928 14 326 0.0 8.0 0.08 1.14 1.09 96 1008.1
20260507172428 14 342 1.6 8.0 0.10 1.14 1.09 96 1007.8
20260507171930 15 83 1.6 12.9 0.10 1.14 1.09 96 1007.8
20260507171657 15 324 1.6 12.9 0.10 1.14 1.09 96 1007.5
20260507170929 15 278 1.6 16.1 0.10 1.14 1.09 96 1007.4
20260507170430 15 294 1.6 16.1 0.08 1.12 1.07 96 1007.7
20260507165929 15 53 1.6 9.7 0.05 1.09 1.04 96 1008.2
20260507165656 15 221 1.6 9.7 0.05 1.09 1.04 96 1007.7
20260507164929 15 273 1.6 9.7 0.08 1.09 1.04 96 1007.9
20260507164429 16 80 1.6 9.7 0.10 1.07 1.02 96 1008.2
20260507163929 16 26 3.2 14.5 0.10 1.07 1.02 95 1008.2
20260507163429 17 45 3.2 16.1 0.13 1.07 1.02 95 1008.6
20260507162930 18 74 0.0 16.1 0.15 1.07 1.02 96 1008.6
20260507162429 19 285 0.0 3.2 0.13 1.04 0.99 98 1008.4
20260507161928 18 87 0.0 3.2 0.15 1.04 0.99 97 1008.3
20260507161647 19 74 0.0 4.8 0.18 1.04 0.99 97 1008.3
20260507160929 19 90 0.0 4.8 0.18 1.04 0.99 97 1008.4
20260507160429 19 102 0.0 3.2 0.20 1.04 0.99 97 1008.3
20260507155928 19 258 0.0 1.6 0.23 1.04 0.99 98 1008.4
20260507155652 19 89 0.0 1.6 0.25 1.04 0.99 98 1008.4
20260507154933 19 83 0.0 0.0 0.25 1.02 0.99 98 1008.2
20260507154431 19 83 0.0 0.0 0.25 0.97 0.94 98 1007.9
20260507153931 19 97 0.0 0.0 0.28 0.97 0.91 98 1007.8
20260507153431 19 93 0.0 0.0 0.28 0.94 0.89 98 1008.1
20260507153148 19 90 0.0 0.0 0.28 0.91 0.86 98 1008.2
20260507152432 20 90 0.0 1.6 0.28 0.91 0.86 98 1008.2
20260507151931 20 98 0.0 1.6 0.28 0.89 0.84 98 1008.1
20260507151431 20 117 0.0 0.0 0.25 0.86 0.81 98 1008.2
20260507151150 20 118 0.0 0.0 0.25 0.86 0.81 98 1008.3
20260507150432 19 27 0.0 0.0 0.25 0.84 0.79 98 1008.3
20260507145931 19 28 0.0 1.6 0.25 0.81 0.76 98 1008.5
20260507145910 19 26 0.0 1.6 0.23 0.79 0.74 98 1008.5
20260507144931 19 6 0.0 0.0 0.20 0.76 0.71 98 1008.5
20260507144430 19 6 0.0 0.0 0.15 0.71 0.66 98 1008.3
20260507143929 19 6 0.0 0.0 0.13 0.69 0.64 98 1008.3
20260507143430 19 6 0.0 0.0 0.10 0.66 0.61 98 1008.3
20260507142928 19 6 0.0 0.0 0.08 0.64 0.58 98 1008.4
20260507142429 19 6 0.0 0.0 0.08 0.64 0.58 98 1008.5
20260507142416 19 42 0.0 0.0 0.05 0.61 0.56 98 1008.4
20260507141429 19 42 0.0 0.0 0.08 0.61 0.56 98 1008.5
20260507140928 19 42 0.0 0.0 0.08 0.61 0.56 98 1008.5
20260507140429 19 43 0.0 0.0 0.08 0.58 0.53 98 1008.6
20260507135929 19 44 0.0 0.0 0.08 0.56 0.51 98 1008.6
20260507135429 19 62 0.0 1.6 0.08 0.56 0.51 98 1008.8
20260507134929 19 93 0.0 1.6 0.10 0.56 0.51 98 1008.9
20260507134428 19 49 0.0 1.6 0.10 0.56 0.51 98 1008.9
20260507134148 19 48 0.0 1.6 0.10 0.56 0.51 98 1008.8
20260507133429 19 55 0.0 1.6 0.10 0.56 0.51 98 1008.7
20260507132929 19 54 0.0 1.6 0.13 0.56 0.51 98 1008.7
20260507132650 19 81 0.0 1.6 0.13 0.56 0.51 98 1008.6
20260507131928 19 77 0.0 1.6 0.13 0.56 0.51 98 1008.6
20260507131431 19 74 0.0 1.6 0.10 0.53 0.48 98 1008.6
20260507130929 19 131 0.0 0.0 0.10 0.53 0.48 98 1008.7
20260507130429 18 131 0.0 0.0 0.08 0.51 0.46 98 1008.7
20260507125929 18 199 0.0 0.0 0.05 0.48 0.43 98 1008.8
20260507125429 18 199 0.0 0.0 0.05 0.48 0.43 98 1008.8
20260507124929 18 199 0.0 0.0 0.03 0.46 0.41 98 1008.8
20260507124430 18 199 0.0 0.0 0.03 0.46 0.41 98 1008.9
20260507124149 18 199 0.0 0.0 0.03 0.46 0.41 98 1008.9
20260507123428 18 199 0.0 0.0 0.03 0.46 0.41 98 1008.9
20260507122929 18 191 0.0 0.0 0.00 0.43 0.38 98 1008.8
20260507122429 18 191 0.0 0.0 0.00 0.43 0.38 98 1008.8
20260507121929 18 191 0.0 0.0 0.00 0.43 0.38 98 1009.0
20260507121429 18 191 0.0 0.0 0.00 0.43 0.38 98 1008.9
20260507120929 18 191 0.0 0.0 0.00 0.43 0.38 98 1009.2
20260507120429 18 191 0.0 0.0 0.00 0.43 0.38 98 1009.1
20260507120147 18 192 0.0 0.0 0.00 0.43 0.38 98 1008.9
20260507115651 18 190 0.0 0.0 0.00 0.43 0.38 98 1009.1
20260507114928 18 190 0.0 0.0 0.00 0.43 0.38 98 1009.4
20260507114429 18 190 0.0 0.0 0.00 0.43 0.38 98 1009.4
20260507113928 18 190 0.0 0.0 0.00 0.43 0.38 98 1009.4
20260507113647 18 190 0.0 0.0 0.00 0.43 0.38 98 1009.3
20260507112928 18 190 0.0 0.0 0.00 0.43 0.38 98 1009.3
20260507112432 18 190 0.0 1.6 0.00 0.43 0.38 98 1009.2
20260507111931 18 190 0.0 1.6 0.00 0.43 0.38 98 1009.3
20260507111431 18 190 0.0 0.0 0.00 0.43 0.38 98 1009.2
20260507110932 18 190 0.0 0.0 0.00 0.43 0.38 98 1009.2
20260507110431 18 190 0.0 0.0 0.00 0.43 0.38 98 1008.9
20260507105931 18 189 0.0 0.0 0.00 0.43 0.38 98 1009.0
20260507105431 18 190 0.0 0.0 0.00 0.43 0.38 98 1008.9
20260507104932 18 196 0.0 0.0 0.00 0.43 0.38 97 1008.8
20260507104431 18 196 0.0 0.0 0.00 0.43 0.38 97 1008.9
20260507103931 18 196 0.0 0.0 0.00 0.43 0.38 97 1009.0
20260507103431 18 196 0.0 0.0 0.00 0.43 0.38 97 1008.9
20260507102931 18 196 0.0 0.0 0.00 0.43 0.38 97 1008.8
20260507102430 18 196 0.0 0.0 0.00 0.43 0.38 97 1008.7
20260507101932 18 204 0.0 0.0 0.00 0.43 0.38 97 1008.7
20260507101431 18 204 0.0 0.0 0.00 0.43 0.38 97 1008.8
20260507100931 18 203 0.0 0.0 0.00 0.43 0.38 97 1008.8
20260507100430 18 199 0.0 0.0 0.00 0.43 0.38 97 1008.8
20260507095931 18 216 0.0 0.0 0.00 0.43 0.38 97 1008.9
20260507095913 18 122 0.0 0.0 0.00 0.43 0.38 97 1008.8
20260507094922 18 122 0.0 0.0 0.00 0.43 0.38 97 1008.9
20260507094416 18 122 0.0 1.6 0.03 0.43 0.38 97 1009.0
20260507093914 18 134 0.0 1.6 0.03 0.43 0.38 97 1008.9
20260507093405 18 152 0.0 0.0 0.03 0.43 0.38 97 1008.9
20260507092905 18 152 0.0 0.0 0.03 0.43 0.38 97 1008.8
20260507092403 18 153 0.0 0.0 0.03 0.43 0.38 97 1008.9
20260507091903 18 152 0.0 0.0 0.03 0.43 0.38 97 1008.9
20260507091627 18 152 0.0 0.0 0.03 0.43 0.38 97 1008.9
20260507090901 18 151 0.0 0.0 0.03 0.43 0.38 97 1009.0
20260507090623 18 151 0.0 0.0 0.03 0.43 0.38 97 1009.1
20260507090118 18 152 0.0 0.0 0.03 0.43 0.38 97 1009.0
20260507085401 18 152 0.0 0.0 0.03 0.43 0.38 97 1009.2
20260507084901 18 152 0.0 1.6 0.03 0.43 0.38 97 1009.0
20260507084632 18 152 0.0 1.6 0.00 0.41 0.36 97 1009.0
20260507083901 18 142 0.0 0.0 0.00 0.41 0.36 97 1009.2
20260507083624 18 69 0.0 0.0 0.00 0.41 0.36 97 1009.6
20260507082903 18 69 0.0 0.0 0.00 0.41 0.36 97 1009.6
20260507082624 18 69 0.0 0.0 0.00 0.41 0.36 97 1009.6
20260507082127 18 69 0.0 0.0 0.00 0.41 0.36 97 1009.6
20260507081403 18 69 0.0 0.0 0.00 0.41 0.36 97 1009.3
20260507080903 18 69 0.0 0.0 0.00 0.41 0.36 97 1009.3
20260507080358 18 69 0.0 0.0 0.00 0.41 0.36 97 1009.2
20260507075850 18 69 0.0 0.0 0.00 0.41 0.36 97 1009.5
20260507075347 18 69 0.0 0.0 0.00 0.41 0.36 97 1009.7
20260507074839 18 69 0.0 0.0 0.00 0.41 0.36 97 1009.9
20260507074339 18 69 0.0 0.0 0.00 0.41 0.36 97 1009.9
20260507074055 18 69 0.0 0.0 0.00 0.41 0.36 97 1009.9
20260507073339 18 69 0.0 0.0 0.00 0.41 0.36 97 1009.9
20260507072839 18 69 0.0 0.0 0.00 0.41 0.36 97 1010.0
20260507072609 18 69 0.0 0.0 0.00 0.41 0.36 97 1010.2
20260507071840 18 69 0.0 0.0 0.00 0.41 0.36 97 1009.8
20260507071337 18 69 0.0 0.0 0.00 0.41 0.36 97 1009.8
20260507070837 18 69 0.0 0.0 0.00 0.41 0.36 97 1009.7
20260507070337 18 69 0.0 0.0 0.00 0.41 0.36 97 1009.6
20260507065835 18 69 0.0 0.0 0.00 0.41 0.36 97 1009.8
20260507065333 18 69 0.0 0.0 0.00 0.41 0.36 96 1010.3
20260507064831 18 69 0.0 0.0 0.00 0.41 0.36 96 1010.5
20260507064331 18 69 0.0 0.0 0.00 0.41 0.36 97 1010.7
20260507063831 18 252 0.0 0.0 0.00 0.41 0.36 96 1010.8
20260507063329 18 252 0.0 0.0 0.03 0.41 0.36 96 1010.7
20260507062829 18 246 0.0 0.0 0.08 0.41 0.36 96 1010.5
20260507062329 18 240 0.0 0.0 0.13 0.41 0.36 96 1010.4
20260507061828 18 239 0.0 0.0 0.15 0.41 0.36 96 1010.6
20260507061329 18 256 0.0 0.0 0.15 0.41 0.36 96 1010.9
20260507060829 18 256 0.0 0.0 0.15 0.41 0.36 96 1010.9
20260507060329 18 257 0.0 0.0 0.15 0.41 0.36 96 1010.7
20260507055829 18 257 0.0 0.0 0.20 0.41 0.36 96 1010.7
20260507055554 18 256 0.0 0.0 0.25 0.41 0.36 96 1010.5
20260507054831 18 256 0.0 0.0 0.28 0.41 0.36 96 1010.6
20260507054552 18 257 0.0 0.0 0.33 0.41 0.36 96 1010.9
20260507053831 18 256 0.0 0.0 0.33 0.41 0.36 96 1010.6
20260507053330 18 257 0.0 0.0 0.30 0.38 0.33 96 1010.3
20260507052832 18 263 0.0 1.6 0.25 0.33 0.28 95 1010.6
20260507052552 18 351 0.0 1.6 0.20 0.28 0.25 95 1011.0
20260507051829 18 58 0.0 0.0 0.18 0.25 0.20 95 1011.2
20260507051815 19 69 0.0 1.6 0.18 0.25 0.20 95 1010.9
20260507050830 19 70 0.0 1.6 0.20 0.25 0.20 94 1010.5
20260507050329 19 190 0.0 1.6 0.20 0.25 0.20 94 1009.9
20260507045829 19 251 0.0 1.6 0.15 0.20 0.15 94 1010.4
20260507045329 19 297 0.0 1.6 0.10 0.15 0.13 94 1011.4
20260507044829 19 46 0.0 3.2 0.08 0.13 0.08 93 1011.8
20260507044329 20 24 0.0 3.2 0.03 0.08 0.05 93 1011.8
20260507043829 20 40 0.0 3.2 0.03 0.08 0.03 93 1012.0
20260507043330 19 43 0.0 3.2 0.03 0.08 0.03 94 1012.2
20260507042828 19 41 0.0 1.6 0.05 0.08 0.03 94 1012.3
20260507042329 19 34 0.0 1.6 0.05 0.08 0.03 95 1012.3
20260507041827 19 10 0.0 0.0 0.05 0.08 0.03 95 1012.0
20260507041326 19 262 0.0 0.0 0.05 0.08 0.03 95 1011.9
20260507040823 19 261 0.0 0.0 0.03 0.05 0.00 94 1011.7
20260507040321 19 261 0.0 0.0 0.03 0.05 0.00 94 1011.5
20260507035821 19 261 0.0 0.0 0.03 0.05 0.05 94 1011.3
20260507035319 19 261 0.0 0.0 0.03 0.05 0.05 94 1011.2
20260507034819 19 261 0.0 0.0 0.03 0.05 0.05 93 1010.9
20260507034317 19 324 0.0 0.0 0.03 0.05 0.05 93 1011.1
20260507033818 19 324 0.0 0.0 0.03 0.05 0.05 93 1011.1
20260507033319 19 324 0.0 0.0 0.00 0.03 0.03 93 1011.2
20260507032816 19 324 0.0 0.0 0.00 0.03 0.03 93 1011.3
20260507032310 19 324 0.0 0.0 0.00 0.03 0.03 93 1011.3
20260507031808 19 324 0.0 0.0 0.00 0.03 0.03 93 1011.2
20260507031308 19 324 0.0 0.0 0.00 0.03 0.03 93 1011.1
20260507030808 19 324 0.0 0.0 0.00 0.03 0.03 93 1011.1
20260507030305 19 324 0.0 0.0 0.00 0.03 0.03 94 1011.0
20260507025801 19 324 0.0 0.0 0.00 0.03 0.03 94 1011.0
20260507025301 19 324 0.0 0.0 0.00 0.03 0.03 94 1010.9
20260507024801 19 324 0.0 0.0 0.00 0.03 0.03 94 1010.9
20260507024302 19 324 0.0 0.0 0.00 0.03 0.03 94 1010.8
20260507024021 19 324 0.0 0.0 0.00 0.03 0.03 94 1010.8
20260507023301 19 324 0.0 0.0 0.00 0.03 0.03 94 1010.8
20260507022801 19 324 0.0 0.0 0.00 0.03 0.03 94 1010.6
20260507022301 19 324 0.0 0.0 0.00 0.03 0.03 93 1010.5
20260507021801 19 324 0.0 0.0 0.00 0.03 0.03 93 1010.6
20260507021304 19 324 0.0 0.0 0.00 0.03 0.03 93 1010.6
20260507020803 19 324 0.0 0.0 0.00 0.03 0.03 93 1010.6
20260507020523 19 324 0.0 0.0 0.00 0.03 0.03 93 1010.7
20260507015803 19 324 0.0 0.0 0.00 0.03 0.03 93 1010.8
20260507015526 19 324 0.0 0.0 0.00 0.03 0.03 93 1010.7
20260507014758 20 324 0.0 0.0 0.00 0.03 0.03 93 1010.6
20260507014252 20 324 0.0 0.0 0.00 0.03 0.03 93 1010.6
20260507013754 20 324 0.0 0.0 0.00 0.03 0.03 92 1010.7
20260507013251 20 324 0.0 0.0 0.00 0.03 0.03 92 1010.9
20260507012751 20 324 0.0 0.0 0.00 0.03 0.03 92 1010.9
20260507012252 20 324 0.0 0.0 0.00 0.03 0.03 92 1010.8
20260507011750 20 324 0.0 0.0 0.00 0.03 0.03 92 1010.7
20260507011247 20 324 0.0 0.0 0.03 0.03 0.03 91 1010.6
20260507010746 20 0 0.0 0.0 0.03 0.03 0.03 91 1010.7